When you browse on this site, cookies collect data to enhance your experience and personalize the content and advertising you see.
Visit our Privacy Policy to learn more. By continuing to use the site, you agree to this use of cookies and data.
  • In Austria
  • List of Countries
  • For 7 days
  • Water Temperature
  • Satellite Maps
  • Weather Map
  • News
  • Weather Widgets
  • user-avatar
    Login

    Hourly Weather Kapan

    Today, 25 June, Tuesday

    Time Temperature Precipitation Wind Pressure Humidity
    00:00 +24°C° 0 mm 2 mps 684 mmHg 73%
    01:00 +24°C° 0 mm 2 mps 684 mmHg 74%
    02:00 +24°C° 0 mm 1 mps 684 mmHg 74%
    03:00 +23°C° 0 mm 1 mps 684 mmHg 75%
    04:00 +24°C° 0 mm 1 mps 684 mmHg 73%
    05:00 +25°C° 0 mm 1 mps 685 mmHg 71%
    06:00 +26°C° 0 mm 1 mps 685 mmHg 70%
    07:00 +27°C° 0 mm 1 mps 685 mmHg 62%
    08:00 +28°C° 0 mm 2 mps 685 mmHg 55%
    09:00 +30°C° 0 mm 2 mps 686 mmHg 48%
    10:00 +31°C° 0 mm 2 mps 686 mmHg 45%
    11:00 +33°C° 0 mm 3 mps 686 mmHg 43%
    12:00 +34°C° 0 mm 3 mps 686 mmHg 40%
    13:00 +34°C° 0 mm 3 mps 685 mmHg 39%
    14:00 +34°C° 0 mm 3 mps 685 mmHg 38%
    15:00 +34°C° 0 mm 3 mps 685 mmHg 37%
    16:00 +33°C° 0 mm 3 mps 685 mmHg 39%
    17:00 +33°C° 0 mm 3 mps 685 mmHg 42%
    18:00 +31°C° 0 mm 2 mps 684 mmHg 44%
    19:00 +29°C° 0 mm 2 mps 685 mmHg 45%
    20:00 +27°C° 0 mm 2 mps 685 mmHg 46%
    21:00 +25°C° 0 mm 1 mps 685 mmHg 48%
    22:00 +25°C° 0 mm 2 mps 685 mmHg 48%
    23:00 +24°C° 0 mm 2 mps 685 mmHg 48%

    Tomorrow, 26 June, Wednesday

    Time Temperature Precipitation Wind Pressure Humidity
    00:00 +24°C° 0 mm 2 mps 685 mmHg 49%
    01:00 +24°C° 0 mm 2 mps 685 mmHg 49%
    02:00 +24°C° 0 mm 2 mps 685 mmHg 50%
    03:00 +23°C° 0 mm 2 mps 685 mmHg 50%
    04:00 +24°C° 0 mm 2 mps 685 mmHg 50%
    05:00 +25°C° 0 mm 1 mps 685 mmHg 50%
    06:00 +25°C° 0 mm 1 mps 685 mmHg 50%
    07:00 +27°C° 0 mm 1 mps 686 mmHg 43%
    08:00 +29°C° 0 mm 2 mps 686 mmHg 37%
    09:00 +30°C° 0 mm 2 mps 686 mmHg 31%
    10:00 +31°C° 0 mm 2 mps 686 mmHg 30%
    11:00 +33°C° 0 mm 3 mps 686 mmHg 29%
    12:00 +33°C° 0 mm 3 mps 686 mmHg 28%
    13:00 +34°C° 0 mm 3 mps 685 mmHg 28%
    14:00 +34°C° 0 mm 3 mps 685 mmHg 29%
    15:00 +34°C° 0 mm 3 mps 685 mmHg 30%
    16:00 +33°C° 0 mm 3 mps 684 mmHg 34%
    17:00 +33°C° 0 mm 3 mps 684 mmHg 38%
    18:00 +31°C° 0 mm 3 mps 684 mmHg 42%
    19:00 +28°C° 0 mm 3 mps 684 mmHg 48%
    20:00 +26°C° 0 mm 2 mps 684 mmHg 54%
    21:00 +24°C° 0 mm 1 mps 684 mmHg 60%
    22:00 +24°C° 0 mm 1 mps 683 mmHg 61%
    23:00 +23°C° 0 mm 1 mps 683 mmHg 62%

    Day after tomorrow, 27 June, Thursday

    Time Temperature Precipitation Wind Pressure Humidity
    00:00 +23°C° 0 mm 1 mps 683 mmHg 63%
    01:00 +23°C° 0 mm 1 mps 683 mmHg 62%
    02:00 +22°C° 0 mm 1 mps 683 mmHg 62%
    03:00 +22°C° 0 mm 1 mps 683 mmHg 62%
    04:00 +23°C° 0 mm 1 mps 683 mmHg 62%
    05:00 +23°C° 0 mm 1 mps 683 mmHg 63%
    06:00 +24°C° 0 mm 1 mps 683 mmHg 63%
    07:00 +25°C° 0 mm 2 mps 683 mmHg 59%
    08:00 +26°C° 0 mm 2 mps 684 mmHg 56%
    09:00 +27°C° 0 mm 3 mps 684 mmHg 52%
    10:00 +28°C° 0 mm 3 mps 683 mmHg 50%
    11:00 +29°C° 0 mm 3 mps 683 mmHg 48%
    12:00 +30°C° 0 mm 4 mps 683 mmHg 46%
    13:00 +30°C° 0.1 mm 4 mps 682 mmHg 46%
    14:00 +30°C° 0.1 mm 4 mps 682 mmHg 46%
    15:00 +30°C° 0.1 mm 4 mps 682 mmHg 46%
    16:00 +29°C° 0.1 mm 4 mps 681 mmHg 49%
    17:00 +28°C° 0.1 mm 4 mps 681 mmHg 52%
    18:00 +27°C° 0.1 mm 4 mps 681 mmHg 55%
    19:00 +25°C° 0.4 mm 3 mps 681 mmHg 63%
    20:00 +23°C° 0.4 mm 2 mps 681 mmHg 70%
    21:00 +21°C° 0.4 mm 1 mps 680 mmHg 78%
    22:00 +21°C° 0.4 mm 1 mps 680 mmHg 78%
    23:00 +20°C° 0.4 mm 1 mps 680 mmHg 79%

    28 June, Friday

    Time Temperature Precipitation Wind Pressure Humidity
    00:00 +20°C° 0.4 mm 1 mps 680 mmHg 79%
    01:00 +20°C° 0.3 mm 1 mps 680 mmHg 79%
    02:00 +20°C° 0.3 mm 1 mps 680 mmHg 79%
    03:00 +20°C° 0.3 mm 1 mps 680 mmHg 79%
    04:00 +20°C° 0 mm 1 mps 680 mmHg 77%
    05:00 +21°C° 0 mm 1 mps 680 mmHg 76%
    06:00 +20°C° 0 mm 0 mps 680 mmHg 74%
    07:00 +23°C° 0 mm 1 mps 680 mmHg 69%
    08:00 +24°C° 0 mm 2 mps 680 mmHg 64%
    09:00 +25°C° 0 mm 2 mps 680 mmHg 60%
    10:00 +27°C° 0.1 mm 2 mps 679 mmHg 56%
    11:00 +28°C° 0.1 mm 3 mps 679 mmHg 52%
    12:00 +29°C° 0.1 mm 3 mps 679 mmHg 48%
    13:00 +29°C° 0.1 mm 3 mps 678 mmHg 47%
    14:00 +29°C° 0.1 mm 3 mps 678 mmHg 46%
    15:00 +29°C° 0.1 mm 3 mps 677 mmHg 46%
    16:00 +28°C° 0.5 mm 3 mps 677 mmHg 51%
    17:00 +27°C° 0.5 mm 2 mps 677 mmHg 56%
    18:00 +25°C° 0.5 mm 2 mps 677 mmHg 62%
    19:00 +24°C° 0.4 mm 2 mps 677 mmHg 65%
    20:00 +24°C° 0.4 mm 2 mps 678 mmHg 68%
    21:00 +23°C° 0.4 mm 2 mps 678 mmHg 72%
    22:00 +21°C° 0.2 mm 2 mps 678 mmHg 72%
    23:00 +22°C° 0.2 mm 1 mps 678 mmHg 73%

    29 June, Saturday

    Time Temperature Precipitation Wind Pressure Humidity
    00:00 +21°C° 0.2 mm 1 mps 678 mmHg 74%
    01:00 +21°C° 0 mm 1 mps 678 mmHg 73%
    02:00 +21°C° 0 mm 1 mps 677 mmHg 73%
    03:00 +21°C° 0 mm 1 mps 677 mmHg 73%
    04:00 +21°C° 0 mm 1 mps 677 mmHg 70%
    05:00 +22°C° 0 mm 1 mps 678 mmHg 68%
    06:00 +21°C° 0 mm 0 mps 678 mmHg 65%
    07:00 +25°C° 0 mm 1 mps 678 mmHg 61%
    08:00 +26°C° 0 mm 1 mps 678 mmHg 57%
    09:00 +27°C° 0 mm 2 mps 678 mmHg 52%
    10:00 +28°C° 0.2 mm 2 mps 678 mmHg 49%
    11:00 +29°C° 0.2 mm 2 mps 678 mmHg 46%
    12:00 +31°C° 0.2 mm 3 mps 678 mmHg 44%
    13:00 +31°C° 0.2 mm 3 mps 678 mmHg 42%
    14:00 +31°C° 0.2 mm 3 mps 677 mmHg 41%
    15:00 +33°C° 0.2 mm 3 mps 677 mmHg 40%
    16:00 +31°C° 0.2 mm 3 mps 677 mmHg 43%
    17:00 +30°C° 0.2 mm 3 mps 676 mmHg 46%
    18:00 +30°C° 0.2 mm 3 mps 676 mmHg 49%
    19:00 +28°C° 0.1 mm 2 mps 677 mmHg 53%
    20:00 +26°C° 0.1 mm 2 mps 677 mmHg 57%
    21:00 +24°C° 0.1 mm 2 mps 677 mmHg 61%
    22:00 +24°C° 0.1 mm 2 mps 677 mmHg 64%
    23:00 +23°C° 0.1 mm 1 mps 677 mmHg 67%

    30 June, Sunday

    Time Temperature Precipitation Wind Pressure Humidity
    00:00 +22°C° 0.1 mm 1 mps 677 mmHg 71%
    01:00 +22°C° 0.2 mm 1 mps 677 mmHg 74%
    02:00 +21°C° 0.2 mm 1 mps 677 mmHg 77%
    03:00 +21°C° 0.2 mm 1 mps 677 mmHg 80%
    04:00 +21°C° 0 mm 1 mps 677 mmHg 80%
    05:00 +21°C° 0 mm 1 mps 678 mmHg 81%
    06:00 +21°C° 0 mm 1 mps 678 mmHg 82%
    07:00 +22°C° 0.1 mm 1 mps 678 mmHg 78%
    08:00 +23°C° 0.1 mm 1 mps 678 mmHg 74%
    09:00 +24°C° 0.1 mm 2 mps 678 mmHg 70%
    10:00 +26°C° 0.1 mm 2 mps 678 mmHg 64%
    11:00 +27°C° 0.1 mm 2 mps 678 mmHg 59%
    12:00 +28°C° 0.1 mm 3 mps 678 mmHg 54%
    13:00 +29°C° 0.1 mm 3 mps 678 mmHg 52%
    14:00 +29°C° 0.1 mm 3 mps 677 mmHg 51%
    15:00 +30°C° 0.1 mm 3 mps 677 mmHg 49%
    16:00 +29°C° 0.2 mm 3 mps 677 mmHg 54%
    17:00 +28°C° 0.2 mm 3 mps 677 mmHg 59%
    18:00 +27°C° 0.2 mm 3 mps 677 mmHg 63%
    19:00 +26°C° 0.1 mm 2 mps 677 mmHg 69%
    20:00 +24°C° 0.1 mm 2 mps 678 mmHg 75%
    21:00 +23°C° 0.1 mm 1 mps 678 mmHg 81%
    22:00 +23°C° 0.2 mm 1 mps 678 mmHg 84%
    23:00 +22°C° 0.2 mm 1 mps 678 mmHg 88%
    Show more